Torna al catalogo

SL-8 DEB

AttivoLEO
NORAD 19260·DEBRIS·🇷🇺 Russia

Lanciato Jun 21, 1988 da Plesetsk Cosmodrome

Loading…

Prossimi Passaggi (prossime 24 ore)

TLE

AggiornatoSource: Space-Track

Epoca: Sep 14, 2026, 12:42 UTC

1 19260U 88053C   26257.52939267  .00001181  00000-0  24633-3 0  9999
2 19260  74.0586 175.5515 0007658 300.6696 108.8815 14.61057575 14798

Traccia SL-8 DEB in tempo reale con AllMySat

Download on the App Store